Weather History for San Antonio Stinson, TX

Change the Weather History Date:

Tuesday, January 1, 2013

  Actual Average Record
Temperature  
Mean Temperature 54 °F -  
Max Temperature 62 °F 62 °F 84 °F (2006)
Min Temperature 45 °F 39 °F 32 °F (2001)
Degree Days  
Heating Degree Days 11    
Growing Degree Days 4 (Base 50)    
Moisture  
Dew Point 51 °F    
Average Humidity 87    
Maximum Humidity 100    
Minimum Humidity 67    
Precipitation  
Precipitation 0.08 in - - ()
Sea Level Pressure  
Sea Level Pressure 30.07 in    
Wind  
Wind Speed 7 mph (NNE)    
Max Wind Speed 15 mph    
Max Gust Speed 22 mph    
Visibility 8 miles    
Events Rain    
Averages and records for this station are not official NWS values.
T = Trace of Precipitation, MM = Missing Value Source: NWS Daily Summary

Daily Weather History Graph

Daily Weather History Graph

Search for Another Location

Airport:

Trip Planner

Search our weather history database for the weather conditions in past years. The results will help you decide how hot, cold, wet, or windy it might be!

Date:

Astronomy

Jan. 01, 2013 Rise Set
Actual Time 7:28 AM CST 5:47 PM CST
Civil Twilight 7:02 AM CST 6:13 PM CST
Nautical Twilight 6:32 AM CST 6:42 PM CST
Astronomical Twilight 6:03 AM CST 7:11 PM CST
Moon 9:57 PM CST (1/1) 10:00 AM CST (1/1)
Length of Visible Light 11h 10m
Length of Day
10h 18m
Waning Gibbous, 83% of the Moon is Illuminated
Jan 1
Waning Gibbous
Jan 4
Last Quarter
Jan 11
New
Jan 18
First Quarter
Jan 26
Full

Hourly Weather History & Observations

Time (CST) Temp. Windchill Dew Point Humidity Pressure Visibility Wind Dir Wind Speed Gust Speed Precip Events Conditions
12:34 AM 62.6 °F - 60.8 °F 94% 29.96 in 2.0 mi NE 4.6 mph - N/A   Overcast
12:45 AM 60.8 °F - 60.8 °F 100% 29.96 in 1.5 mi NNE 4.6 mph - N/A   Overcast
12:53 AM 61.0 °F - 60.1 °F 97% 29.95 in 1.5 mi NE 4.6 mph - N/A   Overcast
1:10 AM 60.8 °F - 60.8 °F 100% 29.95 in 2.0 mi NNE 3.5 mph - N/A   Overcast
1:25 AM 62.6 °F - 60.8 °F 94% 29.95 in 3.0 mi NNE 4.6 mph - N/A   Overcast
1:53 AM 61.0 °F - 59.0 °F 93% 29.93 in 6.0 mi NNE 11.5 mph - N/A   Overcast
2:24 AM 60.8 °F - 59.0 °F 94% 29.95 in 8.0 mi Variable 3.5 mph - N/A   Overcast
2:34 AM 60.8 °F - 59.0 °F 94% 29.95 in 8.0 mi NNE 4.6 mph - N/A   Overcast
2:53 AM 61.0 °F - 59.0 °F 93% 29.95 in 8.0 mi North 5.8 mph - N/A   Overcast
3:10 AM 60.8 °F - 59.0 °F 94% 29.96 in 8.0 mi NNE 9.2 mph - 0.00 in Rain Light Rain
3:36 AM 60.8 °F - 59.0 °F 94% 29.97 in 7.0 mi North 8.1 mph - 0.00 in Rain Light Rain
3:53 AM 60.1 °F - 57.9 °F 93% 29.97 in 4.0 mi North 9.2 mph - 0.01 in Rain Light Rain
4:06 AM 59.0 °F - 57.2 °F 94% 29.98 in 2.5 mi North 8.1 mph - 0.03 in Rain Rain
4:17 AM 57.2 °F - 55.4 °F 94% 29.98 in 3.0 mi North 11.5 mph 20.7 mph 0.05 in Rain Light Rain
4:25 AM 57.2 °F - 55.4 °F 94% 29.99 in 4.0 mi North 9.2 mph - 0.06 in Rain Light Rain
4:53 AM 55.0 °F - 54.0 °F 96% 29.99 in 10.0 mi North 8.1 mph - 0.07 in Rain Light Rain
5:30 AM 55.4 °F - 51.8 °F 88% 30.01 in 10.0 mi North 10.4 mph - 0.00 in   Overcast
6:53 AM 55.0 °F - 50.0 °F 83% 30.02 in 10.0 mi North 8.1 mph - 0.00 in   Overcast
7:53 AM 54.0 °F - 52.0 °F 93% 30.06 in 10.0 mi NNE 6.9 mph - 0.00 in   Overcast
8:16 AM 53.6 °F - 53.6 °F 100% 30.08 in 10.0 mi NE 9.2 mph 17.3 mph N/A   Overcast
8:46 AM 51.8 °F - 50.0 °F 94% 30.09 in 8.0 mi NE 12.7 mph - N/A   Overcast
8:53 AM 52.0 °F - 50.0 °F 93% 30.10 in 8.0 mi NE 9.2 mph - N/A   Overcast
9:53 AM 52.0 °F - 48.0 °F 86% 30.13 in 7.0 mi NNE 9.2 mph 17.3 mph N/A   Overcast
10:33 AM 53.6 °F - 48.2 °F 82% 30.15 in 7.0 mi North 11.5 mph - N/A   Overcast
10:53 AM 53.1 °F - 48.9 °F 86% 30.16 in 8.0 mi North 10.4 mph 18.4 mph N/A   Overcast
11:53 AM 53.1 °F - 48.0 °F 83% 30.16 in 10.0 mi North 12.7 mph - N/A   Overcast
12:53 PM 53.1 °F - 46.0 °F 77% 30.14 in 8.0 mi North 13.8 mph 21.9 mph N/A   Overcast
1:53 PM 54.0 °F - 45.0 °F 72% 30.12 in 10.0 mi North 15.0 mph 21.9 mph N/A   Mostly Cloudy
2:53 PM 55.0 °F - 44.1 °F 67% 30.13 in 10.0 mi North 8.1 mph 17.3 mph N/A   Mostly Cloudy
3:20 PM 55.4 °F - 44.6 °F 67% 30.13 in 10.0 mi NNE 11.5 mph - N/A   Scattered Clouds
3:53 PM 55.0 °F - 44.1 °F 67% 30.14 in 10.0 mi North 9.2 mph - N/A   Clear
5:53 PM 48.9 °F - 41.0 °F 74% 30.18 in 10.0 mi NNE 8.1 mph - N/A   Clear
6:53 PM 46.9 °F - 39.9 °F 77% 30.20 in 10.0 mi NNE 6.9 mph - N/A   Clear
7:53 PM 46.0 °F 44.8 °F 39.9 °F 79% 30.22 in 10.0 mi NNE 3.5 mph - N/A   Clear
8:53 PM 46.0 °F 44.8 °F 41.0 °F 83% 30.22 in 10.0 mi NNE 3.5 mph - N/A   Clear
9:53 PM 46.0 °F 43.9 °F 41.0 °F 83% 30.22 in 10.0 mi NE 4.6 mph - N/A   Clear
10:53 PM 46.0 °F 42.5 °F 39.0 °F 76% 30.23 in 10.0 mi NNE 6.9 mph - N/A   Clear
11:53 PM 45.0 °F 40.6 °F 37.9 °F 76% 30.23 in 10.0 mi NNE 8.1 mph - N/A   Clear